map of XSP home
XSP - Airport
Location
City:  Singapore, Singapore
Name:Seletar Airport
ICAO:WSSL
IATA:XSP

Details
Type:Airport (Aerodrome, Airfield)
Use:Public/Civil, International (customs port of entry)
Latitude:125'01"N (1.416950)
Longitude:10352'04"E (103.867653)
Elevation:45 ft (14 m)
Variation:0.22E (WMM2015 magnetic declination)
-0.00 annual change
Runways:1
Longest:6024 × 151 ft (1836 × 46 m), paved

Time
Time Zone:UTC+8
Local Time:

Weather
METAR:WSSL 220700Z 04005KT 9999 SCT020TCU BKN300 33/22 Q1004 RMK 0630Z Q1005
TAF:WSSL 220500Z 2206/2312 35006KT 9999 FEW018CB SCT020
TEMPO 2206/2210 3000 TSRA FEW012CB BKN015

Related Locations
Nearby:
Farthest:TPN: 12376 mi / 19917 km
Tiputini, D, EC

Find:

   beyond  
but within

Other Information
Maps:
NOTAMs:
Links:
Sources:

  
flag of Singapore   

Airport Diagram

Airport diagram for XSP

Airport diagram PDF from AIP Singapore

Sectional Chart

Flight Planning
at skyvector.com

Satellite Image

Google Maps Satellite view

 

Copyright © 2004-2017 Karl L. Swartz. All rights reserved.
The Great Circle Mapper name and logo are trademarks of the Great Circle Mapper.
All other trademarks mentioned herein belong to their respective owners.
Please see credits for attibutions and further copyright information.

  Follow gcmap on Facebook Follow gcmap on Twitter Follow gcmap on Google+ GCmap on LinkedIn

hCard Microformat

Geo Microformat